Location: Newark
(7.0858°N, 171.3717°E)
Time: 09:12:36
(UTC+00:00)

S-56A Canister/Altair - Pass Details

Date: 01 December 2020
Orbit: 633 x 2499 km, 38.9° (Epoch: 27 January)

Event Time Altitude Azimuth Distance (km) Brightness Sun altitude
Rises 01:58:36 0° 204° (SSW) 5,728 12.5 52.9°
Reaches altitude 10° 02:02:59 10° 193° (SSW) 4,916 12.4 52.2°
Maximum altitude 02:14:51 30° 138° (SE) 3,767 11.4 50.2°
Drops below altitude 10° 02:26:44 10° 84° (E) 4,979 11.4 48.2°
Sets 02:31:06 0° 74° (ENE) 5,816 11.7 47.4°
